TimeCDT,TemperatureF,Dew PointF,Humidity,Sea Level PressureIn,VisibilityMPH,Wind Direction,Wind SpeedMPH,Gust SpeedMPH,PrecipitationIn,Events,Conditions,WindDirDegrees,DateUTC
12:15 AM,64.4,64.4,100,29.69,9.0,North,12.7,-,N/A,,Mostly Cloudy,360,2013-05-19 05:15:00
12:35 AM,64.4,64.4,100,29.69,10.0,North,23.0,36.8,N/A,,Overcast,360,2013-05-19 05:35:00
12:55 AM,64.4,62.6,94,29.68,10.0,North,19.6,31.1,N/A,Thunderstorm,Overcast,350,2013-05-19 05:55:00
1:15 AM,60.8,60.8,100,29.66,5.0,North,33.4,38.0,0.02,,Mostly Cloudy,360,2013-05-19 06:15:00
1:35 AM,59.0,59.0,100,29.69,5.0,North,29.9,35.7,0.04,Rain,Heavy Rain,360,2013-05-19 06:35:00
1:55 AM,59.0,59.0,100,29.67,8.0,North,29.9,38.0,0.08,,Unknown,10,2013-05-19 06:55:00
2:15 AM,59.0,59.0,100,29.68,7.0,North,27.6,32.2,N/A,Rain,Light Rain,10,2013-05-19 07:15:00
2:35 AM,59.0,59.0,100,29.67,8.0,NNE,26.5,35.7,N/A,Rain-Thunderstorm,Light Rain,20,2013-05-19 07:35:00
2:55 AM,59.0,59.0,100,29.65,9.0,NNE,23.0,36.8,N/A,Thunderstorm,Unknown,20,2013-05-19 07:55:00
3:15 AM,59.0,59.0,100,29.63,3.0,NNE,26.5,32.2,0.03,Rain-Thunderstorm,Thunderstorms and Rain,30,2013-05-19 08:15:00
3:35 AM,59.0,59.0,100,29.68,1.0,NE,23.0,32.2,0.61,Rain-Thunderstorm,Heavy Thunderstorms and Rain,40,2013-05-19 08:35:00
3:55 AM,59.0,59.0,100,29.67,5.0,NE,18.4,24.2,1.00,Rain-Thunderstorm,Rain,40,2013-05-19 08:55:00
4:15 AM,59.0,59.0,100,29.64,4.0,NE,19.6,24.2,0.03,Rain-Thunderstorm,Light Rain,40,2013-05-19 09:15:00
4:35 AM,57.2,57.2,100,29.62,3.0,NE,20.7,27.6,0.10,Rain,Rain,40,2013-05-19 09:35:00
4:55 AM,59.0,59.0,100,29.57,4.0,NNE,28.8,34.5,0.17,Rain,Light Rain,30,2013-05-19 09:55:00
5:15 AM,57.2,57.2,100,29.55,6.0,NE,24.2,31.1,N/A,,Mist,40,2013-05-19 10:15:00
5:35 AM,57.2,57.2,100,29.53,5.0,NE,23.0,29.9,N/A,,Mist,50,2013-05-19 10:35:00
5:55 AM,57.2,57.2,100,29.52,6.0,NE,27.6,35.7,N/A,,Mist,40,2013-05-19 10:55:00
6:15 AM,57.2,57.2,100,29.53,7.0,NE,27.6,33.4,N/A,,Unknown,50,2013-05-19 11:15:00
6:35 AM,57.2,57.2,100,29.54,5.0,NE,21.9,33.4,N/A,,Mist,50,2013-05-19 11:35:00
7:15 AM,57.2,57.2,100,29.60,4.0,ENE,19.6,-,N/A,,Mist,60,2013-05-19 12:15:00
7:35 AM,57.2,57.2,100,29.60,0.8,East,17.3,27.6,N/A,,Mist,80,2013-05-19 12:35:00
7:55 AM,57.2,57.2,100,29.59,0.2,ENE,17.3,21.9,N/A,Fog,Fog,70,2013-05-19 12:55:00
8:15 AM,59.0,59.0,100,29.59,0.2,East,13.8,-,N/A,Fog,Fog,80,2013-05-19 13:15:00
8:35 AM,59.0,59.0,100,29.59,5.0,East,15.0,-,N/A,,Mist,90,2013-05-19 13:35:00
8:55 AM,60.8,60.8,100,29.58,8.0,East,17.3,21.9,N/A,,Unknown,90,2013-05-19 13:55:00
9:15 AM,60.8,60.8,100,29.57,10.0,East,19.6,-,N/A,,Unknown,90,2013-05-19 14:15:00
9:55 AM,62.6,62.6,100,29.56,10.0,East,20.7,24.2,N/A,,Unknown,90,2013-05-19 14:55:00
10:15 AM,62.6,62.6,100,29.55,10.0,East,19.6,25.3,N/A,,Unknown,90,2013-05-19 15:15:00
10:35 AM,64.4,64.4,100,29.55,10.0,East,21.9,27.6,N/A,,Unknown,100,2013-05-19 15:35:00
10:55 AM,66.2,66.2,100,29.54,10.0,East,19.6,24.2,N/A,,Unknown,100,2013-05-19 15:55:00
11:15 AM,66.2,66.2,100,29.53,10.0,ESE,19.6,24.2,N/A,,Unknown,110,2013-05-19 16:15:00
11:35 AM,66.2,66.2,100,29.53,10.0,East,15.0,-,N/A,,Unknown,100,2013-05-19 16:35:00
11:55 AM,66.2,64.4,94,29.53,10.0,SSE,21.9,27.6,N/A,,Unknown,150,2013-05-19 16:55:00
12:15 PM,68.0,64.4,88,29.53,10.0,SSE,24.2,29.9,N/A,,Unknown,150,2013-05-19 17:15:00
12:35 PM,66.2,64.4,94,29.53,10.0,SE,24.2,31.1,N/A,,Unknown,140,2013-05-19 17:35:00
12:55 PM,64.4,64.4,100,29.54,10.0,SE,20.7,29.9,N/A,,Overcast,140,2013-05-19 17:55:00
1:15 PM,64.4,64.4,100,29.53,10.0,SE,18.4,-,N/A,,Overcast,140,2013-05-19 18:15:00
1:35 PM,66.2,64.4,94,29.53,10.0,SE,26.5,29.9,N/A,,Overcast,140,2013-05-19 18:35:00
2:15 PM,66.2,64.4,94,29.52,10.0,SSE,24.2,-,N/A,,Mostly Cloudy,150,2013-05-19 19:15:00
2:35 PM,66.2,64.4,94,29.53,10.0,SSE,20.7,26.5,N/A,,Overcast,160,2013-05-19 19:35:00
3:15 PM,68.0,62.6,83,29.54,10.0,South,18.4,27.6,N/A,,Overcast,170,2013-05-19 20:15:00
3:35 PM,68.0,62.6,83,29.53,10.0,South,23.0,31.1,N/A,,Overcast,180,2013-05-19 20:35:00
3:55 PM,68.0,62.6,83,29.54,10.0,South,21.9,28.8,N/A,,Mostly Cloudy,180,2013-05-19 20:55:00
4:15 PM,68.0,62.6,83,29.54,10.0,South,23.0,27.6,N/A,,Mostly Cloudy,180,2013-05-19 21:15:00
4:35 PM,68.0,62.6,83,29.54,10.0,South,20.7,26.5,N/A,,Mostly Cloudy,170,2013-05-19 21:35:00
4:55 PM,71.6,62.6,73,29.54,10.0,South,19.6,25.3,N/A,,Mostly Cloudy,190,2013-05-19 21:55:00
5:15 PM,71.6,62.6,73,29.55,10.0,SSW,23.0,-,N/A,,Mostly Cloudy,200,2013-05-19 22:15:00
5:35 PM,69.8,60.8,73,29.55,10.0,South,20.7,25.3,N/A,,Partly Cloudy,180,2013-05-19 22:35:00
5:55 PM,71.6,60.8,69,29.54,10.0,South,17.3,21.9,N/A,,Clear,180,2013-05-19 22:55:00
6:15 PM,69.8,62.6,78,29.54,10.0,SSW,18.4,-,N/A,,Clear,200,2013-05-19 23:15:00
6:35 PM,68.0,62.6,83,29.54,10.0,South,12.7,18.4,N/A,,Clear,190,2013-05-19 23:35:00
6:55 PM,68.0,60.8,78,29.54,10.0,South,13.8,-,N/A,,Clear,190,2013-05-19 23:55:00
7:15 PM,68.0,60.8,78,29.53,10.0,SSW,10.4,-,N/A,,Clear,200,2013-05-20 00:15:00
7:35 PM,68.0,60.8,78,29.53,10.0,SSW,9.2,-,N/A,,Scattered Clouds,210,2013-05-20 00:35:00
7:55 PM,68.0,60.8,78,29.53,10.0,SSW,6.9,-,N/A,,Mostly Cloudy,200,2013-05-20 00:55:00
8:15 PM,66.2,62.6,88,29.54,10.0,SSW,4.6,-,N/A,,Scattered Clouds,200,2013-05-20 01:15:00
8:35 PM,66.2,62.6,88,29.54,10.0,Calm,Calm,-,N/A,,Mostly Cloudy,0,2013-05-20 01:35:00
8:55 PM,66.2,62.6,88,29.55,10.0,Calm,Calm,-,N/A,,Scattered Clouds,0,2013-05-20 01:55:00
9:15 PM,64.4,62.6,94,29.57,10.0,SW,3.5,-,N/A,,Partly Cloudy,230,2013-05-20 02:15:00
9:35 PM,64.4,62.6,94,29.57,10.0,WSW,3.5,-,N/A,,Mostly Cloudy,250,2013-05-20 02:35:00
9:55 PM,64.4,64.4,100,29.57,10.0,Calm,Calm,-,N/A,,Overcast,0,2013-05-20 02:55:00
10:15 PM,62.6,62.6,100,29.56,10.0,NNW,3.5,-,N/A,,Overcast,340,2013-05-20 03:15:00
10:35 PM,62.6,62.6,100,29.56,10.0,North,4.6,-,N/A,,Mostly Cloudy,350,2013-05-20 03:35:00
11:15 PM,62.6,62.6,100,29.56,10.0,NNW,3.5,-,N/A,,Mostly Cloudy,340,2013-05-20 04:15:00
11:35 PM,60.8,60.8,100,29.55,10.0,WNW,4.6,-,N/A,,Overcast,300,2013-05-20 04:35:00
11:55 PM,62.6,62.6,100,29.54,10.0,WNW,5.8,-,N/A,,Mostly Cloudy,290,2013-05-20 04:55:00